< < Back
Terminal Aerodrome Forecast


Current Version              Previous Versions:   1  2  3  4  5  6  7  8  9  

Terminal Aerodrome Forecast

934
FTUS42 KCAE 280800 AAA
TAFCAE
TAF AMD
KCAE 280835Z 2809/2906 25008KT P6SM SCT080 BKN200
     FM281500 28015G25KT P6SM SCT040
     FM290000 30012KT P6SM SCT250
     FM290300 31005KT P6SM SKC=



Latest METAR

727
SAUS80 KWBC 281800
MTRCAE
METAR KCAE 281756Z 26013KT 10SM SCT060 BKN075 36/21 A2981 RMK AO2 SLP089
T03610211 10361 20289 58015


USA.gov is the U.S. government's official web portal to all federal, state and local government web resources and services.